Weather History for San Jose, Costa Rica

Change the Weather History Date:

Friday, April 4, 2014

  Actual Average Record
Temperature  
Mean Temperature 77 °F -  
Max Temperature 88 °F 83 °F 91 °F (1998)
Min Temperature 66 °F 65 °F 62 °F (1997)
Cooling Degree Days 12    
Growing Degree Days 27 (Base 50)    
Moisture  
Dew Point 60 °F    
Average Humidity 57    
Maximum Humidity 78    
Minimum Humidity 26    
Precipitation  
Precipitation 0.00 in 0.14 in - ()
Sea Level Pressure  
Sea Level Pressure 29.95 in    
Wind  
Wind Speed 8 mph ()    
Max Wind Speed 15 mph    
Max Gust Speed 23 mph    
Visibility 8.3 miles    
Events      
Averages and records for this station are not official NWS values.
T = Trace of Precipitation, MM = Missing Value Source: Averaged Metar Reports

Daily Weather History Graph

Daily Weather History Graph

Search for Another Location

Airport:

Trip Planner

Search our weather history database for the weather conditions in past years. The results will help you decide how hot, cold, wet, or windy it might be!

Date:

Astronomy

Apr. 04, 2014 Rise Set
Actual Time 5:32 AM CST 5:47 PM CST
Civil Twilight 5:11 AM CST 6:08 PM CST
Nautical Twilight 4:46 AM CST 6:33 PM CST
Astronomical Twilight 4:22 AM CST 6:57 PM CST
Moon 9:26 AM CST (4/4) 10:19 PM CST (4/4)
Length of Visible Light 12h 57m
Length of Day
12h 14m
Waxing Crescent, 26% of the Moon is Illuminated
Apr 4
Waxing Crescent
Apr 7
First Quarter
Apr 15
Full
Apr 22
Last Quarter
Apr 29
New

Hourly Weather History & Observations

Time (CST) Temp. Heat Index Dew Point Humidity Pressure Visibility Wind Dir Wind Speed Gust Speed Precip Events Conditions
12:00 AM 71 °F - 62 °F 64%  in 12 mi East 12.7 mph - -  
12:00 AM 69.8 °F - 60.8 °F 73% 29.96 in - ENE 3.5 mph - N/A   Clear
1:00 AM 71.6 °F - 60.8 °F 69% 29.96 in - East 10.4 mph - N/A   Clear
3:00 AM 69 °F - 60 °F 66% 29.81 in 12 mi NNE 6.9 mph - -  
3:00 AM 69.8 °F - 60.8 °F 73% 29.97 in - NNE 6.9 mph - N/A   Clear
4:00 AM 68.0 °F - 59.0 °F 73% 29.97 in - NNE 8.1 mph - N/A   Clear
5:00 AM 68.0 °F - 59.0 °F 73% 29.99 in - East 3.5 mph - N/A   Clear
6:00 AM 68 °F - 60 °F 68% 29.87 in 12 mi NNE 6.9 mph - -  
6:00 AM 68.0 °F - 60.8 °F 78% 30.00 in - NNE 6.9 mph - N/A   Clear
7:00 AM 75.2 °F - 59.0 °F 57% 30.03 in - NE 4.6 mph - N/A   Clear
8:00 AM 77.0 °F - 59.0 °F 54% 30.03 in - East 9.2 mph - N/A   Clear
9:00 AM 80 °F - 60 °F 40% 29.86 in 12 mi East 11.5 mph - -  
9:00 AM 80.6 °F 81.1 °F 59.0 °F 48% 30.02 in - East 11.5 mph - N/A   Clear
10:00 AM 86.0 °F 85.4 °F 59.0 °F 40% 30.01 in 6.2 mi East 10.4 mph - N/A   Partly Cloudy
11:00 AM 86.0 °F 85.4 °F 59.0 °F 40% 30.01 in 6.2 mi East 11.5 mph 23.0 mph N/A   Partly Cloudy
12:00 PM 86 °F - - %  in 12 mi ESE 12.7 mph - -  
12:00 PM 86.0 °F 85.4 °F 59.0 °F 40% 29.99 in 6.2 mi ESE 12.7 mph - N/A   Partly Cloudy
1:00 PM 87.8 °F 87.1 °F 59.0 °F 38% 29.96 in 6.2 mi East 10.4 mph - N/A   Partly Cloudy
2:00 PM 84.2 °F 83.8 °F 59.0 °F 42% 29.94 in 6.2 mi ESE 11.5 mph - N/A   Scattered Clouds
3:00 PM 88 °F - 58 °F 26% 29.75 in 12 mi SE 10.4 mph - -   Partly Cloudy
3:00 PM 87.8 °F 86.5 °F 57.2 °F 35% 29.92 in 6.2 mi SE 10.4 mph - N/A   Scattered Clouds
4:00 PM 82.4 °F 82.9 °F 60.8 °F 48% 29.92 in 6.2 mi ESE 11.5 mph - N/A   Scattered Clouds
5:00 PM 78.8 °F - 60.8 °F 54% 29.93 in 6.2 mi ESE 13.8 mph - N/A   Scattered Clouds
6:00 PM 76 °F - 61 °F 51% 29.82 in 12 mi East 11.5 mph - -   Partly Cloudy
6:00 PM 75.2 °F - 60.8 °F 61% 29.95 in 6.2 mi East 11.5 mph - N/A   Scattered Clouds
7:00 PM 73.4 °F - 60.8 °F 65% 29.97 in 6.2 mi East 9.2 mph - N/A   Scattered Clouds
8:00 PM 71.6 °F - 62.6 °F 73% 29.98 in 6.2 mi East 15.0 mph - N/A   Partly Cloudy
9:00 PM 72 °F - 60 °F 57% 29.83 in 12 mi East 10.4 mph - -   Scattered Clouds
9:00 PM 71.6 °F - 60.8 °F 69% 29.99 in 6.2 mi East 10.4 mph - N/A   Partly Cloudy
10:00 PM 71.6 °F - 60.8 °F 69% 30.01 in 6.2 mi East 10.4 mph - N/A   Partly Cloudy
11:00 PM 71.6 °F - 59.0 °F 64% 30.00 in 6.2 mi East 10.4 mph - N/A   Partly Cloudy